Wind_Speed
5 5 5 5 5 4 4 5 3 3 3 3 3 2 2 2 2 2 2 2 1 2 3 3 3 2 2 2 3 3 3 3 3 4 4 3 2 3 4 3 3 2 2
6 6 6 5 5 4 4 4 4 4 4 3 3 3 3 3 2 2 3 2 1 2 2 2 2 1 1 1 2 3 3 4 4 4 4 4 3 3 4 4 3 3 2
7 7 7 6 6 5 5 4 4 4 4 4 4 3 3 3 3 3 3 3 2 2 2 2 2 2 1 2 3 3 4 4 5 5 5 5 4 4 4 4 3 3 3
8 8 8 7 7 6 6 5 5 5 5 5 5 4 4 4 4 3 4 3 3 2 2 3 3 3 2 2 3 3 4 4 5 5 5 5 5 5 4 4 4 3 3
9 9 8 8 7 7 6 6 6 6 6 6 6 6 5 5 4 4 4 4 4 4 3 3 4 4 3 3 3 3 4 4 5 5 5 5 5 5 5 4 4 4 3
9 9 9 8 8 7 7 7 7 7 7 7 6 6 6 6 5 5 6 6 5 5 4 4 5 5 5 4 4 4 4 4 5 5 4 5 6 5 5 5 5 5 4
10 10 10 9 8 8 8 8 8 8 8 7 7 7 7 7 7 6 7 6 6 6 5 5 5 6 6 6 5 5 5 5 4 3 3 4 5 5 5 5 6 6 5
10 10 10 10 9 9 8 8 8 9 9 8 8 7 7 7 7 7 8 7 7 7 6 6 6 6 6 6 6 6 6 6 5 3 3 4 5 5 5 5 5 5 5
10 11 10 11 10 9 9 8 8 9 9 9 9 9 8 7 8 8 8 7 7 7 7 7 7 7 7 7 6 6 6 5 5 4 4 4 4 4 4 3 3 5 4
12 12 11 11 10 9 9 9 9 9 10 10 10 10 9 8 8 9 8 8 8 8 8 8 8 8 8 8 7 7 6 5 4 4 4 4 3 3 3 3 3 4 5
13 13 12 11 10 10 10 10 10 11 11 11 11 11 10 9 9 10 9 9 8 9 9 10 10 9 9 8 8 7 7 6 5 4 3 3 3 4 3 3 3 4 4
13 13 12 11 11 11 11 11 11 11 12 12 12 12 12 11 10 10 10 11 10 9 9 10 9 9 9 9 9 9 8 7 6 5 4 4 4 4 4 4 4 4 4
13 13 12 12 12 12 12 12 13 12 12 12 13 13 12 12 11 11 11 11 11 10 10 10 10 10 10 10 10 9 8 7 6 5 4 4 5 5 4 5 5 5 6
13 13 13 13 13 13 13 13 13 12 13 13 14 14 13 13 12 11 11 11 12 11 10 11 11 10 10 10 10 10 9 8 7 7 6 6 6 6 5 5 6 6 7
12 13 14 14 14 14 14 14 13 13 13 13 14 14 14 14 13 12 12 11 12 11 11 11 11 11 11 11 11 10 9 8 8 8 7 7 6 6 6 6 7 7 7
14 14 15 15 15 15 15 15 14 13 13 13 13 14 14 14 14 13 12 12 12 11 11 12 11 11 11 10 10 11 10 10 9 8 8 7 7 7 7 7 7 7 7
15 15 15 15 15 15 16 15 14 13 13 13 14 14 14 13 14 13 12 12 12 12 12 12 11 11 11 11 12 12 13 12 11 10 10 9 9 9 8 8 7 7 8
15 16 16 16 15 15 15 15 14 13 13 13 13 13 12 12 13 13 13 13 13 12 12 12 11 12 12 12 12 13 13 13 13 12 12 11 10 9 9 9 8 8 9
16 16 15 15 15 15 14 15 15 13 13 13 14 13 12 12 12 12 12 12 12 12 12 12 12 13 13 13 13 13 13 13 13 13 12 12 11 11 10 10 10 10 9
16 16 15 15 16 15 15 15 14 13 13 13 12 12 12 11 11 11 11 11 12 12 13 13 13 13 13 14 13 14 14 14 14 14 14 13 13 12 12 11 11 11 11
16 16 16 16 16 16 15 15 14 13 13 13 12 13 12 12 12 12 12 12 12 13 13 13 13 13 14 13 13 14 14 15 14 15 15 15 14 14 13 12 12 12 12
17 17 16 16 16 15 15 14 14 14 13 14 14 13 13 13 13 13 13 12 12 13 13 13 13 14 13 13 14 14 14 14 14 15 15 15 15 15 14 13 13 13 12
18 17 17 16 16 16 15 15 14 14 14 14 14 14 13 13 13 13 12 12 12 12 12 13 13 13 14 14 15 15 15 14 14 15 15 15 15 15 14 15 14 14 13
18 18 18 17 16 16 15 15 15 14 13 14 14 13 13 12 12 12 12 11 11 11 11 12 12 12 13 13 14 15 16 16 15 15 14 15 15 15 15 15 15 15 14
18 18 17 17 16 15 15 14 14 14 13 13 13 13 13 13 13 12 12 11 11 10 11 11 11 12 12 12 13 13 14 16 15 15 15 15 15 16 16 16 16 16 16
19 18 17 16 16 15 14 14 13 13 12 13 13 13 13 13 12 12 12 11 12 11 11 11 11 11 12 13 12 12 13 14 15 15 15 16 16 17 17 16 17 17 16
Wind_Direction
323 320 317 316 314 301 294 284 276 273 268 273 266 244 224 224 219 213 203 195 174 152 160 170 184 181 182 179 185 187 203 216 189 175 176 173 178 183 189 184 180 167 154
317 316 314 315 314 302 289 277 277 276 272 273 259 246 238 236 233 238 221 209 199 171 175 175 194 188 208 209 200 200 209 221 203 195 196 199 196 198 211 205 200 191 180
314 316 315 313 309 303 291 279 277 273 270 268 257 249 247 246 246 258 239 222 215 195 180 187 198 209 238 221 217 225 218 215 207 204 198 200 202 210 208 214 212 203 203
314 314 312 311 309 303 295 284 278 275 272 265 257 255 254 251 252 261 252 230 225 217 204 202 213 225 237 230 236 242 225 215 213 208 202 198 204 208 214 212 214 226 229
315 316 313 311 309 306 299 290 280 276 274 269 264 259 256 256 258 259 257 249 240 232 227 220 223 227 228 226 232 236 226 217 219 221 212 207 213 216 216 216 224 233 233
316 317 316 314 309 307 301 294 285 280 276 271 269 264 260 258 261 266 261 258 249 240 238 231 232 225 222 228 234 229 217 226 230 229 230 217 221 220 219 225 228 240 243
320 320 318 317 313 309 305 297 287 282 279 274 268 264 264 258 261 266 263 263 258 252 241 240 238 227 230 229 227 222 219 223 233 232 237 223 222 220 225 227 228 244 239
318 318 318 317 314 308 305 299 290 285 281 277 270 268 269 261 260 266 266 263 262 255 248 246 236 232 236 236 238 233 227 228 248 251 251 243 223 221 231 239 230 224 230
312 312 314 314 311 307 303 301 296 291 286 281 277 274 271 263 263 264 266 259 258 256 249 238 235 241 240 241 240 238 237 247 259 261 255 252 245 223 227 242 238 217 225
308 307 307 312 306 304 302 299 295 291 286 281 279 279 278 273 266 265 263 254 251 251 247 243 248 250 251 247 241 245 249 256 256 262 265 252 239 221 230 245 234 226 224
309 305 302 307 302 301 299 297 294 288 284 280 278 278 277 277 275 270 263 259 262 261 257 255 258 256 252 250 247 246 245 242 240 250 247 247 253 242 231 236 256 249 231
310 307 304 301 299 300 300 297 293 288 284 281 278 276 275 276 276 273 264 265 264 263 259 262 262 260 253 250 245 246 243 242 242 242 241 249 254 252 258 265 255 248 244
306 306 304 301 297 299 301 298 291 288 285 281 278 277 274 277 278 277 267 264 264 263 259 259 261 260 256 250 245 245 243 237 243 242 245 247 248 248 262 271 264 249 253
306 307 306 304 299 301 303 300 293 288 287 282 278 275 275 277 276 275 271 265 266 267 265 262 262 260 255 252 248 244 244 243 241 243 240 241 246 253 258 263 265 259 257
303 306 308 305 301 301 301 299 294 292 290 284 279 277 276 276 276 273 269 267 269 267 264 264 264 259 254 252 251 248 249 240 236 237 236 239 244 253 261 258 262 264 266
303 304 305 303 299 299 297 294 291 293 292 285 283 281 279 276 275 275 269 267 270 267 263 264 264 262 259 255 252 250 250 247 241 242 245 243 252 261 264 266 262 257 259
301 305 303 301 299 297 298 294 288 291 288 285 281 282 280 277 277 276 270 270 269 266 263 267 265 263 258 254 252 250 249 252 250 251 249 245 247 255 260 260 263 264 259
306 304 302 300 299 298 296 294 291 290 286 285 283 283 281 280 280 278 273 270 264 264 263 266 268 268 260 255 253 253 252 251 249 250 249 247 245 248 253 256 261 267 263
305 304 301 299 299 299 296 294 288 285 286 286 285 279 277 276 279 279 273 272 267 265 263 264 266 266 262 260 259 256 254 253 250 250 252 252 250 251 255 256 260 265 268
304 302 299 300 300 297 294 293 290 286 286 286 284 278 274 273 277 278 274 272 271 268 265 266 269 265 266 263 262 258 258 254 253 253 253 250 250 252 256 261 263 264 267
303 303 302 300 299 297 292 290 288 285 284 285 285 280 277 275 276 276 275 272 270 268 267 266 267 266 265 260 261 260 255 254 254 255 253 250 251 254 259 261 263 266 269
302 303 304 300 297 294 292 288 285 283 283 283 285 281 279 278 276 276 274 271 269 266 265 265 264 266 261 260 260 258 257 254 255 255 253 253 254 255 259 264 265 267 270
301 303 303 301 299 294 291 288 284 282 282 283 279 279 280 276 275 276 274 272 269 266 266 266 264 260 263 263 259 260 258 256 256 255 253 252 254 255 258 263 267 270 271
298 300 300 299 300 296 292 288 286 281 281 284 284 281 279 278 274 275 275 271 270 268 267 266 264 263 261 260 262 262 260 260 260 259 256 255 254 256 258 263 265 267 270
296 297 298 298 298 295 292 290 288 282 281 281 285 282 280 279 275 270 268 267 268 267 269 268 267 264 261 260 261 262 264 265 261 258 257 257 257 258 259 263 267 266 268
297 296 296 297 297 295 292 291 289 281 280 280 283 283 281 278 276 269 265 264 265 267 271 271 266 265 264 262 260 261 266 266 262 260 259 258 258 260 261 264 267 265 268
Height
5883 5882 5881 5881 5880 5880 5879 5879 5878 5878 5878 5878 5877 5877 5877 5876 5876 5875 5875 5875 5874 5873 5874 5875 5876 5876 5877 5877 5877 5878 5878 5879 5880 5880 5881 5882 5882 5883 5883 5884 5885 5886 5886
5882 5881 5881 5880 5880 5879 5879 5878 5878 5878 5878 5877 5877 5877 5876 5876 5876 5875 5875 5875 5875 5874 5875 5875 5876 5877 5877 5877 5877 5877 5878 5879 5879 5880 5881 5882 5882 5883 5884 5884 5885 5886 5886
5882 5881 5880 5880 5879 5879 5878 5878 5878 5877 5877 5877 5876 5876 5876 5876 5876 5875 5875 5875 5875 5875 5875 5876 5876 5877 5877 5877 5877 5877 5878 5878 5879 5879 5880 5881 5882 5883 5883 5884 5885 5885 5886
5881 5881 5880 5879 5878 5878 5878 5877 5877 5877 5877 5876 5876 5876 5876 5875 5875 5875 5875 5875 5875 5875 5875 5875 5875 5876 5876 5876 5877 5877 5877 5878 5878 5879 5880 5880 5881 5882 5883 5884 5884 5885 5885
5881 5880 5879 5878 5878 5877 5877 5877 5876 5876 5876 5876 5875 5875 5875 5875 5874 5874 5874 5874 5874 5875 5874 5874 5875 5875 5876 5876 5876 5876 5877 5877 5877 5878 5878 5879 5880 5881 5882 5883 5884 5884 5885
5880 5879 5878 5877 5877 5876 5876 5876 5875 5875 5875 5875 5875 5874 5874 5874 5874 5874 5873 5873 5873 5874 5874 5874 5874 5874 5875 5875 5876 5876 5876 5876 5876 5877 5878 5879 5880 5881 5882 5882 5883 5884 5884
5879 5878 5877 5876 5876 5875 5875 5874 5874 5874 5874 5874 5873 5873 5873 5873 5873 5873 5873 5873 5872 5873 5873 5873 5873 5873 5874 5875 5875 5876 5876 5876 5876 5876 5877 5878 5879 5880 5881 5882 5882 5883 5884
5878 5877 5876 5875 5874 5874 5874 5873 5873 5873 5872 5872 5872 5872 5872 5872 5872 5872 5872 5872 5871 5871 5872 5872 5872 5872 5873 5874 5874 5875 5875 5875 5876 5877 5877 5878 5879 5879 5880 5881 5882 5882 5883
5877 5875 5875 5874 5873 5873 5872 5872 5872 5872 5871 5871 5871 5871 5871 5871 5871 5871 5871 5870 5870 5870 5870 5871 5871 5872 5872 5873 5873 5874 5875 5875 5875 5876 5877 5877 5878 5878 5879 5880 5881 5881 5882
5875 5874 5873 5873 5872 5871 5871 5870 5870 5870 5870 5870 5870 5869 5869 5869 5869 5869 5869 5869 5869 5869 5869 5870 5870 5871 5871 5872 5872 5873 5873 5874 5875 5875 5876 5877 5877 5878 5879 5879 5880 5880 5881
5873 5872 5872 5871 5870 5870 5869 5869 5869 5868 5868 5868 5868 5868 5868 5868 5867 5867 5867 5867 5867 5867 5867 5868 5869 5869 5870 5870 5871 5872 5872 5873 5874 5875 5875 5876 5877 5877 5878 5878 5879 5879 5880
5872 5871 5870 5869 5869 5868 5868 5867 5867 5867 5866 5866 5866 5866 5866 5866 5866 5865 5865 5866 5866 5866 5866 5866 5867 5867 5868 5869 5869 5870 5871 5872 5873 5873 5874 5875 5876 5877 5877 5877 5878 5878 5879
5870 5870 5869 5868 5867 5866 5866 5864 5865 5865 5864 5864 5864 5864 5864 5864 5863 5863 5863 5864 5864 5864 5864 5865 5865 5866 5866 5867 5867 5868 5869 5870 5871 5872 5873 5874 5875 5875 5876 5876 5877 5877 5878
5869 5868 5867 5866 5865 5864 5864 5863 5862 5862 5862 5862 5861 5861 5861 5861 5861 5861 5861 5861 5861 5862 5862 5863 5863 5863 5864 5865 5865 5866 5867 5868 5870 5871 5871 5872 5873 5874 5875 5875 5875 5876 5876
5867 5866 5865 5864 5863 5862 5861 5861 5860 5859 5859 5859 5859 5858 5858 5858 5858 5859 5859 5859 5859 5860 5860 5860 5861 5861 5862 5863 5864 5864 5865 5866 5868 5869 5870 5870 5872 5873 5873 5873 5874 5875 5875
5865 5864 5863 5862 5861 5860 5859 5858 5858 5857 5857 5856 5856 5856 5855 5856 5856 5856 5856 5857 5857 5857 5858 5858 5859 5859 5860 5860 5861 5863 5863 5863 5865 5867 5868 5869 5870 5871 5871 5872 5872 5873 5873
5862 5861 5860 5860 5859 5857 5856 5855 5855 5855 5854 5854 5853 5853 5853 5853 5853 5853 5853 5854 5854 5855 5855 5856 5856 5856 5857 5858 5859 5860 5861 5862 5863 5865 5866 5867 5868 5868 5869 5870 5870 5871 5871
5860 5859 5858 5857 5856 5855 5854 5853 5852 5852 5851 5851 5851 5850 5850 5851 5851 5851 5851 5851 5851 5851 5851 5853 5854 5854 5855 5855 5856 5857 5858 5859 5861 5862 5863 5864 5865 5866 5867 5867 5868 5869 5869
5858 5857 5855 5854 5853 5852 5851 5850 5849 5849 5849 5848 5848 5848 5848 5848 5848 5848 5848 5848 5849 5849 5850 5850 5851 5851 5852 5853 5853 5854 5855 5856 5858 5859 5860 5861 5862 5863 5864 5865 5865 5866 5867
5855 5853 5852 5851 5850 5849 5848 5847 5847 5846 5846 5846 5845 5845 5845 5846 5846 5846 5846 5846 5846 5847 5847 5847 5847 5848 5849 5849 5850 5851 5852 5853 5854 5856 5857 5858 5859 5860 5861 5862 5863 5864 5864
5853 5851 5849 5848 5847 5846 5845 5844 5844 5844 5843 5843 5843 5842 5843 5843 5843 5843 5844 5844 5844 5844 5844 5844 5844 5844 5845 5845 5846 5848 5849 5850 5851 5852 5853 5855 5856 5857 5858 5859 5860 5860 5861
5850 5848 5847 5845 5844 5843 5842 5841 5841 5840 5840 5840 5840 5840 5840 5840 5840 5840 5841 5841 5841 5841 5841 5841 5842 5841 5841 5842 5843 5844 5845 5847 5848 5849 5850 5851 5852 5854 5855 5856 5857 5857 5857
5847 5845 5844 5842 5841 5840 5839 5838 5838 5838 5837 5837 5837 5837 5837 5837 5837 5837 5838 5838 5838 5838 5839 5839 5839 5839 5839 5839 5840 5841 5842 5843 5844 5845 5846 5848 5849 5850 5852 5852 5853 5853 5854
5844 5843 5841 5839 5838 5837 5836 5836 5835 5835 5835 5834 5834 5834 5834 5834 5835 5835 5835 5835 5835 5835 5836 5836 5835 5835 5836 5836 5837 5838 5838 5839 5840 5842 5843 5844 5845 5847 5848 5848 5849 5850 5850
5840 5839 5838 5836 5835 5834 5833 5833 5832 5832 5832 5832 5832 5832 5832 5832 5832 5832 5832 5832 5832 5833 5833 5833 5833 5832 5833 5833 5834 5834 5835 5836 5837 5838 5840 5841 5842 5843 5844 5845 5845 5846 5846
5836 5835 5834 5833 5832 5831 5830 5830 5830 5829 5830 5830 5830 5829 5829 5829 5829 5829 5829 5829 5829 5830 5830 5830 5830 5830 5830 5830 5831 5831 5832 5833 5833 5835 5836 5837 5838 5839 5840 5840 5841 5842 5842